H1 CPF 2 NER 2024 12 31 9 366 01 glonass143 H2 2007501 9143 46805 2024 12 31 0 0 0 2025 1 3 23 45 0 900 1 1 0 0 0 1 H9 10 0 60675 0.00000 0 -7519237.206 -10069504.622 22199254.561 10 0 60675 900.00000 0 -6716651.973 -12619087.016 21126247.028 10 0 60675 1800.00000 0 -6140882.459 -15068161.379 19642961.213 10 0 60675 2700.00000 0 -5783049.626 -17350350.915 17778126.775 10 0 60675 3600.00000 0 -5622543.705 -19403725.113 15567896.364 10 0 60675 4500.00000 0 -5628077.925 -21173214.957 13055149.997 10 0 60675 5400.00000 0 -5759204.029 -22612757.270 10288667.027 10 0 60675 6300.00000 0 -5968225.444 -23687078.588 7322181.182 10 0 60675 7200.00000 0 -6202427.032 -24373043.677 4213336.795 10 0 60675 8100.00000 0 -6406526.642 -24660511.974 1022566.439 10 0 60675 9000.00000 0 -6525244.062 -24552665.820 -2188087.901 10 0 60675 9900.00000 0 -6505877.746 -24065796.593 -5356186.657 10 0 60675 10800.00000 0 -6300779.143 -23228557.822 -8420113.180 10 0 60675 11700.00000 0 -5869618.741 -22080717.002 -11320278.403 10 0 60675 12600.00000 0 -5181346.706 -20671459.002 -14000285.372 10 0 60675 13500.00000 0 -4215764.022 -19057313.071 -16408030.331 10 0 60675 14400.00000 0 -2964636.629 -17299791.115 -18496718.509 10 0 60675 15300.00000 0 -1432304.487 -15462837.087 -20225774.553 10 0 60675 16200.00000 0 364241.033 -13610194.936 -21561630.025 10 0 60675 17100.00000 0 2395815.648 -11802805.692 -22478372.868 10 0 60675 18000.00000 0 4622018.073 -10096342.681 -22958246.719 10 0 60675 18900.00000 0 6992683.319 -8538987.683 -22991990.887 10 0 60675 19800.00000 0 9449753.333 -7169540.400 -22579014.992 10 0 60675 20700.00000 0 11929487.573 -6015939.384 -21727405.369 10 0 60675 21600.00000 0 14364922.013 -5094255.160 -20453763.512 10 0 60675 22500.00000 0 16688474.722 -4408196.368 -18782879.958 10 0 60675 23400.00000 0 18834590.063 -3949148.266 -16747250.013 10 0 60675 24300.00000 0 20742311.884 -3696740.606 -14386440.755 10 0 60675 25200.00000 0 22357679.051 -3619919.784 -11746321.442 10 0 60675 26100.00000 0 23635843.852 -3678478.993 -8878172.199 10 0 60675 27000.00000 0 24542825.421 -3824980.987 -5837688.140 10 0 60675 27900.00000 0 25056825.411 -4006991.539 -2683898.196 10 0 60675 28800.00000 0 25169051.432 -4169528.690 521980.307 10 0 60675 29700.00000 0 24884014.288 -4257623.764 3717729.055 10 0 60675 30600.00000 0 24219287.106 -4218885.531 6841334.992 10 0 60675 31500.00000 0 23204736.873 -4005958.751 9832191.855 10 0 60675 32400.00000 0 21881261.013 -3578772.848 12632273.678 10 0 60675 33300.00000 0 20299082.173 -2906485.350 15187257.587 10 0 60675 34200.00000 0 18515672.816 -1969037.584 17447574.220 10 0 60675 35100.00000 0 16593396.443 -758256.401 19369365.784 10 0 60675 36000.00000 0 14596963.874 721545.297 20915333.578 10 0 60675 36900.00000 0 12590810.545 2453495.519 22055459.002 10 0 60675 37800.00000 0 10636503.821 4408622.001 22767584.576 10 0 60675 38700.00000 0 8790287.841 6546825.154 23037844.076 10 0 60675 39600.00000 0 7100867.679 8818326.033 22860933.665 10 0 60675 40500.00000 0 5607524.486 11165530.508 22240218.772 10 0 60675 41400.00000 0 4338639.581 13525233.456 21187674.420 10 0 60675 42300.00000 0 3310688.474 15831072.460 19723659.666 10 0 60675 43200.00000 0 2527746.316 18016129.890 17876529.875 10 0 60675 44100.00000 0 1981524.967 20015575.747 15682093.536 10 0 60675 45000.00000 0 1651939.717 21769241.470 13182923.358 10 0 60675 45900.00000 0 1508181.412 23224017.417 10427534.263 10 0 60675 46800.00000 0 1510248.458 24335973.685 7469443.659 10 0 60675 47700.00000 0 1610873.579 25072115.118 4366131.962 10 0 60675 48600.00000 0 1757763.390 25411696.520 1177923.519 10 0 60675 49500.00000 0 1896055.315 25347042.408 -2033190.037 10 0 60675 50400.00000 0 1970886.994 24883836.463 -5204760.552 10 0 60675 51300.00000 0 1929968.362 24040868.280 -8275103.991 10 0 60675 52200.00000 0 1726046.349 22849247.968 -11184506.393 10 0 60675 53100.00000 0 1319156.709 21351121.770 -13876390.855 10 0 60675 54000.00000 0 678566.528 19597942.966 -16298422.185 10 0 60675 54900.00000 0 -215675.785 17648371.059 -18403527.268 10 0 60675 55800.00000 0 -1371649.504 15565887.838 -20150811.013 10 0 60675 56700.00000 0 -2784976.514 13416230.615 -21506350.144 10 0 60675 57600.00000 0 -4438767.632 11264750.277 -22443849.653 10 0 60675 58500.00000 0 -6304103.366 9173804.698 -22945149.578 10 0 60675 59400.00000 0 -8341029.666 7200296.104 -23000572.840 10 0 60675 60300.00000 0 -10500027.655 5393454.666 -22609107.946 10 0 60675 61200.00000 0 -12723896.511 3792959.961 -21778423.526 10 0 60675 62100.00000 0 -14949971.464 2427477.602 -20524714.849 10 0 60675 63000.00000 0 -17112584.891 1313670.775 -18872385.539 10 0 60675 63900.00000 0 -19145668.335 455726.584 -16853570.805 10 0 60675 64800.00000 0 -20985387.348 -154584.560 -14507511.411 10 0 60675 65700.00000 0 -22572699.638 -537320.488 -11879790.440 10 0 60675 66600.00000 0 -23855730.021 -723275.870 -9021447.550 10 0 60675 67500.00000 0 -24791863.313 -752435.057 -5987987.781 10 0 60675 68400.00000 0 -25349467.917 -672035.416 -2838304.086 10 0 60675 69300.00000 0 -25509178.256 -534323.734 366465.465 10 0 60675 70200.00000 0 -25264682.626 -394101.157 3564123.575 10 0 60675 71100.00000 0 -24622983.701 -306160.928 6692619.592 10 0 60675 72000.00000 0 -23604120.985 -322727.687 9691251.826 10 0 60675 72900.00000 0 -22240367.019 -491006.889 12501842.959 10 0 60675 73800.00000 0 -20574931.068 -850948.239 15069865.804 10 0 60675 74700.00000 0 -18660224.537 -1433317.921 17345497.742 10 0 60675 75600.00000 0 -16555760.488 -2258161.403 19284583.695 10 0 60675 76500.00000 0 -14325774.714 -3333722.211 20849489.420 10 0 60675 77400.00000 0 -12036667.204 -4655862.965 22009828.995 10 0 60675 78300.00000 0 -9754370.099 -6208014.043 22743052.929 10 0 60675 79200.00000 0 -7541751.095 -7961653.298 23034885.843 10 0 60675 80100.00000 0 -5456159.662 -9877298.147 22879605.478 10 0 60675 81000.00000 0 -3547217.443 -11905970.072 22280157.635 10 0 60675 81900.00000 0 -1854944.034 -13991071.862 21248104.583 10 0 60675 82800.00000 0 -408295.505 -16070600.601 19803407.478 10 0 60675 83700.00000 0 775824.070 -18079605.237 17974046.336 10 0 60675 84600.00000 0 1693037.435 -19952787.017 15795484.145 10 0 60675 85500.00000 0 2351436.034 -21627134.733 13309984.700 10 0 60676 0.00000 0 2770991.918 -23044484.705 10565796.928 10 0 60676 900.00000 0 2982465.157 -24153898.939 7616219.400 10 0 60676 1800.00000 0 3025852.844 -24913759.612 4518566.681 10 0 60676 2700.00000 0 2948446.549 -25293493.937 1333052.610 10 0 60676 3600.00000 0 2802580.465 -25274854.380 -1878383.889 10 0 60676 4500.00000 0 2643166.645 -24852700.524 -5053288.498 10 0 60676 5400.00000 0 2525122.628 -24035249.005 -8129912.261 10 0 60676 6300.00000 0 2500801.461 -22843780.594 -11048418.820 10 0 60676 7200.00000 0 2617534.031 -21311816.481 -13752053.837 10 0 60676 8100.00000 0 2915388.835 -19483798.360 -16188253.161 10 0 60676 9000.00000 0 3425244.954 -17413327.825 -18309667.712 10 0 60676 9900.00000 0 4167260.603 -15161039.120 -20075084.872 10 0 60676 10800.00000 0 5149802.661 -12792194.580 -21450228.498 10 0 60676 11700.00000 0 6368883.077 -10374103.421 -22408422.277 10 0 60676 12600.00000 0 7808126.453 -7973471.781 -22931103.947 10 0 60676 13500.00000 0 9439270.787 -5653794.281 -23008180.961 10 0 60676 14400.00000 0 11223180.909 -3472895.412 -22638221.260 10 0 60676 15300.00000 0 13111332.665 -1480722.410 -21828475.961 10 0 60676 16200.00000 0 15047706.245 282519.420 -20594733.952 10 0 60676 17100.00000 0 16971009.932 1787812.526 -18961011.455 10 0 60676 18000.00000 0 18817141.741 3018295.168 -16959082.737 10 0 60676 18900.00000 0 20521786.431 3969712.882 -14627861.039 10 0 60676 19800.00000 0 22023039.646 4650336.071 -12012641.664 10 0 60676 20700.00000 0 23263949.670 5080348.759 -9164221.787 10 0 60676 21600.00000 0 24194870.648 5290735.648 -6137913.965 10 0 60676 22500.00000 0 24775528.890 5321715.622 -2992472.412 10 0 60676 23400.00000 0 24976715.764 5220788.798 211047.092 10 0 60676 24300.00000 0 24781536.310 5040480.436 3410471.472 10 0 60676 25200.00000 0 24186161.224 4835877.672 6543715.749 10 0 60676 26100.00000 0 23200050.687 4662063.682 9549986.022 10 0 60676 27000.00000 0 21845640.554 4571558.079 12370956.688 10 0 60676 27900.00000 0 20157503.918 4611871.986 14951899.108 10 0 60676 28800.00000 0 18181022.871 4823281.280 17242739.984 10 0 60676 29700.00000 0 15970625.690 5236912.247 19199029.225 10 0 60676 30600.00000 0 13587662.523 5873220.721 20782798.978 10 0 60676 31500.00000 0 11098007.656 6740929.266 21963297.572 10 0 60676 32400.00000 0 8569487.512 7836467.811 22717584.688 10 0 60676 33300.00000 0 6069240.638 9143942.182 23030976.555 10 0 60676 34200.00000 0 3661118.647 10635632.964 22897332.801 10 0 60676 35100.00000 0 1403235.285 12273005.113 22319179.429 10 0 60676 36000.00000 0 -654235.346 14008187.409 21307665.299 10 0 60676 36900.00000 0 -2470920.614 15785861.188 19882352.530 10 0 60676 37800.00000 0 -4017694.486 17545480.572 18070844.219 10 0 60676 38700.00000 0 -5277646.426 19223732.292 15908255.907 10 0 60676 39600.00000 0 -6246534.192 20757132.818 13436540.237 10 0 60676 40500.00000 0 -6932702.248 22084654.343 10703677.155 10 0 60676 41400.00000 0 -7356469.810 23150269.514 7762744.776 10 0 60676 42300.00000 0 -7549014.899 23905307.737 4670888.639 10 0 60676 43200.00000 0 -7550802.132 24310523.468 1488209.331 10 0 60676 44100.00000 0 -7409621.386 24337788.749 -1723409.665 10 0 60676 45000.00000 0 -7178321.105 23971337.904 -4901510.558 10 0 60676 45900.00000 0 -6912333.128 23208511.186 -7984282.045 10 0 60676 46800.00000 0 -6667094.834 22059965.344 -10911767.795 10 0 60676 47700.00000 0 -6495478.785 20549341.679 -13627038.262 10 0 60676 48600.00000 0 -6445339.706 18712405.156 -16077302.327 10 0 60676 49500.00000 0 -6557283.489 16595690.493 -18214936.698 10 0 60676 50400.00000 0 -6862753.354 14254711.936 -19998412.735 10 0 60676 51300.00000 0 -7382514.675 11751811.683 -21393102.702 10 0 60676 52200.00000 0 -8125602.911 9153736.862 -22371950.025 10 0 60676 53100.00000 0 -9088779.427 6529046.201 -22915990.948 10 0 60676 54000.00000 0 -10256518.437 3945454.240 -23014717.995 10 0 60676 54900.00000 0 -11601525.981 1467223.272 -22666278.786 10 0 60676 55800.00000 0 -13085769.410 -847289.066 -21877506.827 10 0 60676 56700.00000 0 -14661974.570 -2947825.450 -20663784.155 10 0 60676 57600.00000 0 -16275528.205 -4794077.525 -19048738.741 10 0 60676 58500.00000 0 -17866706.214 -6357111.914 -17063782.680 10 0 60676 59400.00000 0 -19373134.684 -7620315.613 -14747500.123 10 0 60676 60300.00000 0 -20732380.859 -8579822.920 -12144896.736 10 0 60676 61200.00000 0 -21884565.639 -9244407.622 -9306525.124 10 0 60676 62100.00000 0 -22774888.200 -9634846.543 -6287503.095 10 0 60676 63000.00000 0 -23355956.890 -9782782.636 -3146443.710 10 0 60676 63900.00000 0 -23589828.590 -9729136.718 55682.074 10 0 60676 64800.00000 0 -23449670.825 -9522135.854 3256728.044 10 0 60676 65700.00000 0 -22920976.743 -9215042.411 6394577.625 10 0 60676 66600.00000 0 -22002281.727 -8863680.309 9408347.499 10 0 60676 67500.00000 0 -20705351.334 -8523863.366 12239566.577 10 0 60676 68400.00000 0 -19054832.279 -8248834.665 14833307.499 10 0 60676 69300.00000 0 -17087380.668 -8086825.195 17139248.863 10 0 60676 70200.00000 0 -14850303.353 -8078834.931 19112647.887 10 0 60676 71100.00000 0 -12399768.493 -8256730.011 20715205.077 10 0 60676 72000.00000 0 -9798659.174 -8641736.413 21915804.571 10 0 60676 72900.00000 0 -7114158.621 -9243393.828 22691116.309 10 0 60676 73800.00000 0 -4415166.502 -10059014.314 23026048.734 10 0 60676 74700.00000 0 -1769652.748 -11073669.181 22914043.508 10 0 60676 75600.00000 0 757942.166 -12260705.635 22357206.541 10 0 60676 76500.00000 0 3109153.457 -13582772.594 21366272.608 10 0 60676 77400.00000 0 5233684.000 -14993313.865 19960403.779 10 0 60676 78300.00000 0 7091251.668 -16438467.164 18166824.907 10 0 60676 79200.00000 0 8653015.860 -17859290.412 16020302.492 10 0 60676 80100.00000 0 9902524.323 -19194222.601 13562476.164 10 0 60676 81000.00000 0 10836141.329 -20381676.433 10841055.055 10 0 60676 81900.00000 0 11462939.837 -21362653.880 7908894.018 10 0 60676 82800.00000 0 11804062.802 -22083274.458 4822967.322 10 0 60676 83700.00000 0 11891581.145 -22497109.262 1643259.707 10 0 60676 84600.00000 0 11766897.293 -22567221.661 -1568403.436 10 0 60676 85500.00000 0 11478762.494 -22267827.748 -4749563.482 10 0 60677 0.00000 0 11080992.696 -21585505.632 -7838349.106 10 0 60677 900.00000 0 10629980.334 -20519901.207 -10774687.066 10 0 60677 1800.00000 0 10182108.883 -19083900.826 -13501474.697 10 0 60677 2700.00000 0 9791179.793 -17303261.688 -15965696.145 10 0 60677 3600.00000 0 9505962.043 -15215715.724 -18119455.947 10 0 60677 4500.00000 0 9367968.395 -12869583.937 -19920911.247 10 0 60677 5400.00000 0 9409552.875 -10321958.996 -21335084.237 10 0 60677 6300.00000 0 9652410.111 -7636531.837 -22334539.278 10 0 60677 7200.00000 0 10106540.019 -4881152.835 -22899911.953 10 0 60677 8100.00000 0 10769721.525 -2125228.879 -23020280.336 10 0 60677 9000.00000 0 11627517.522 562935.723 -22693371.835 10 0 60677 9900.00000 0 12653810.831 3118744.466 -21925602.124 10 0 60677 10800.00000 0 13811848.716 5483752.487 -20731945.859 10 0 60677 11700.00000 0 15055752.133 7607848.422 -19135641.930 10 0 60677 12600.00000 0 16332426.452 9451084.663 -17167739.150 10 0 60677 13500.00000 0 17583793.571 10985081.173 -14866491.180 10 0 60677 14400.00000 0 18749251.823 12193945.791 -12276612.337 10 0 60677 15300.00000 0 19768260.483 13074674.101 -9448408.636 10 0 60677 16200.00000 0 20582940.324 13637013.682 -6436800.811 10 0 60677 17100.00000 0 21140580.965 13902799.921 -3300258.172 10 0 60677 18000.00000 0 21395949.510 13904792.614 -99664.037 10 0 60677 18900.00000 0 21313303.255 13685063.525 3102865.184 10 0 60677 19800.00000 0 20868021.620 13293003.774 6245184.309 10 0 60677 20700.00000 0 20047788.384 12783035.860 9266323.534 10 0 60677 21600.00000 0 18853274.147 12212127.352 12107669.088 10 0 60677 22500.00000 0 17298289.849 11637211.503 14714097.504 10 0 60677 23400.00000 0 15409404.288 11112623.747 17035041.647 10 0 60677 24300.00000 0 13225040.886 10687662.217 19025468.151 10 0 60677 25200.00000 0 10794090.596 10404375.043 20646747.689 10 0 60677 26100.00000 0 8174097.844 10295667.573 21867401.685 10 0 60677 27000.00000 0 5429094.064 10383809.191 22663711.450 10 0 60677 27900.00000 0 2627167.801 10679402.664 23020178.359 10 0 60677 28800.00000 0 -162128.723 11180859.659 22929826.364 10 0 60677 29700.00000 0 -2870429.989 11874404.987 22394341.069 10 0 60677 30600.00000 0 -5433155.550 12734610.109 21424042.444 10 0 60677 31500.00000 0 -7791949.392 13725434.334 20037691.276 10 0 60677 32400.00000 0 -9896859.783 14801730.908 18262132.492 10 0 60677 33300.00000 0 -11708169.656 15911155.610 16131781.446 10 0 60677 34200.00000 0 -13197801.817 16996398.344 13687962.345 10 0 60677 35100.00000 0 -14350240.890 17997644.401 10978110.877 10 0 60677 36000.00000 0 -15162933.910 18855161.969 8054855.885 10 0 60677 36900.00000 0 -15646153.246 19511906.776 4974997.590 10 0 60677 37800.00000 0 -15822328.181 19916033.589 1798402.133 10 0 60677 38700.00000 0 -15724873.917 20023207.894 -1413165.883 10 0 60677 39600.00000 0 -15396568.087 19798619.235 -4597249.590 10 0 60677 40500.00000 0 -14887544.171 19218610.181 -7691920.662 10 0 60677 41400.00000 0 -14252987.506 18271851.055 -10636990.160 10 0 60677 42300.00000 0 -13550632.231 16960009.847 -13375185.017 10 0 60677 43200.00000 0 -12838165.916 15297888.115 -15853266.570 10 0 60677 44100.00000 0 -12170652.386 13313016.345 -18023068.863 10 0 60677 45000.00000 0 -11598082.282 11044725.084 -19842436.239 10 0 60677 45900.00000 0 -11163155.226 8542730.258 -21276041.953 10 0 60677 46800.00000 0 -10899387.387 5865291.387 -22296072.164 10 0 60677 47700.00000 0 -10829624.246 3077019.268 -22882762.382 10 0 60677 48600.00000 0 -10965021.051 246424.102 -23024776.525 10 0 60677 49500.00000 0 -11304533.602 -2556694.327 -22719421.785 10 0 60677 50400.00000 0 -11834940.470 -5263906.396 -21972695.684 10 0 60677 51300.00000 0 -12531395.372 -7810752.485 -20799164.834 10 0 60677 52200.00000 0 -13358486.217 -10139175.736 -19221678.049 10 0 60677 53100.00000 0 -14271756.066 -12199687.563 -17270919.539 10 0 60677 54000.00000 0 -15219621.925 -13953176.994 -14984810.855 10 0 60677 54900.00000 0 -16145610.585 -15372289.757 -12407773.109 10 0 60677 55800.00000 0 -16990817.399 -16442320.912 -9589863.679 10 0 60677 56700.00000 0 -17696484.454 -17161585.137 -6585804.025 10 0 60677 57600.00000 0 -18206589.529 -17541250.560 -3453917.395 10 0 60677 58500.00000 0 -18470336.684 -17604644.411 -254997.078 10 0 60677 59400.00000 0 -18444443.381 -17386060.866 2948872.818 10 0 60677 60300.00000 0 -18095127.555 -16929122.269 6095521.056 10 0 60677 61200.00000 0 -17399710.617 -16284763.552 9123893.980 10 0 60677 62100.00000 0 -16347768.459 -15508925.405 11975237.778 10 0 60677 63000.00000 0 -14941781.506 -14660053.792 14594235.477 10 0 60677 63900.00000 0 -13197255.782 -13796511.340 16930076.696 10 0 60677 64800.00000 0 -11142309.057 -12974009.669 18937439.741 10 0 60677 65700.00000 0 -8816738.363 -12243170.590 20577367.414 10 0 60677 66600.00000 0 -6270606.716 -11647318.568 21818020.009 10 0 60677 67500.00000 0 -3562406.730 -11220597.037 22635291.367 10 0 60677 68400.00000 0 -756876.260 -10986487.506 23013276.489 10 0 60677 69300.00000 0 2077444.356 -10956793.626 22944581.881 10 0 60677 70200.00000 0 4870813.293 -11131132.944 22430472.667 10 0 60677 71100.00000 0 7554939.647 -11496957.956 21480853.443 10 0 60677 72000.00000 0 10065578.153 -12030106.029 20114082.799 10 0 60677 72900.00000 0 12344959.308 -12695855.621 18356624.485 10 0 60677 73800.00000 0 14343954.594 -13450445.020 16242541.157 10 0 60677 74700.00000 0 16023887.146 -14242990.265 13812839.742 10 0 60677 75600.00000 0 17357912.806 -15017721.899 11114680.333 10 0 60677 76500.00000 0 18331914.172 -15716446.507 8200463.332 10 0 60677 77400.00000 0 18944870.544 -16281129.109 5126812.226 10 0 60677 78300.00000 0 19208688.581 -16656487.018 1953471.675 10 0 60677 79200.00000 0 19147501.278 -16792484.925 -1257857.499 10 0 60677 80100.00000 0 18796465.301 -16646624.865 -4444723.212 10 0 60677 81000.00000 0 18200108.099 -16185933.202 -7545142.812 10 0 60677 81900.00000 0 17410295.331 -15388559.515 -10498815.018 10 0 60677 82800.00000 0 16483905.280 -14244918.679 -13248298.663 10 0 60677 83700.00000 0 15480309.338 -12758326.851 -15740134.597 10 0 60677 84600.00000 0 14458765.684 -10945103.522 -17925888.413 10 0 60677 85500.00000 0 13475836.846 -8834134.450 -19763093.377 10 0 60678 0.00000 0 12582940.506 -6465913.279 -21216075.081 10 0 60678 900.00000 0 11824136.538 -3891099.978 -22256642.763 10 0 60678 1800.00000 0 11234244.541 -1168659.032 -22864632.348 10 0 60678 2700.00000 0 10837369.198 1636349.689 -23028293.844 10 0 60678 3600.00000 0 10645896.194 4455232.798 -22744514.094 10 0 60678 4500.00000 0 10659999.787 7218277.332 -22018871.963 10 0 60678 5400.00000 0 10867682.130 9857408.544 -20865525.179 10 0 60678 6300.00000 0 11245342.035 12308781.843 -19306931.331 10 0 60678 7200.00000 0 11758848.636 14515201.951 -17373408.578 10 0 60678 8100.00000 0 12365074.290 16428269.619 -15102544.640 10 0 60678 9000.00000 0 13013821.801 18010167.590 -12538465.418 10 0 60678 9900.00000 0 13650064.452 19235012.458 -9730977.375 10 0 60678 10800.00000 0 14216404.266 20089717.173 -6734600.169 10 0 60678 11700.00000 0 14655644.614 20574329.343 -3607508.245 10 0 60678 12600.00000 0 14913368.496 20701832.326 -410401.945 10 0 60678 13500.00000 0 14940413.496 20497418.583 2794669.899 10 0 60678 14400.00000 0 14695138.764 19997266.813 5945512.989 10 0 60678 15300.00000 0 14145388.061 19246875.122 8980992.692 10 0 60678 16200.00000 0 13270065.682 18299021.003 11842217.877 10 0 60678 17100.00000 0 12060258.335 17211434.377 14473680.552 10 0 60678 18000.00000 0 10519855.045 16044281.850 16824329.302 10 0 60678 18900.00000 0 8665638.167 14857567.983 18848556.039 10 0 60678 19800.00000 0 6526840.584 13708562.637 20507077.306 10 0 60678 20700.00000 0 4144186.430 12649362.185 21767693.533 10 0 60678 21600.00000 0 1568454.003 11724686.559 22605911.997 10 0 60678 22500.00000 0 -1141380.676 10970004.156 23005421.833 10 0 60678 23400.00000 0 -3920343.825 10410062.881 22958412.159 10 0 60678 24300.00000 0 -6699917.346 10057888.658 22465727.207 10 0 60678 25200.00000 0 -9410645.184 9914293.264 21536855.290 10 0 60678 26100.00000 0 -11984785.448 9967912.177 20189751.395 10 0 60678 27000.00000 0 -14358899.084 10195770.972 18450496.201 10 0 60678 27900.00000 0 -16476268.221 10564356.749 16352797.359 10 0 60678 28800.00000 0 -18289044.003 11031149.778 13937341.872 10 0 60678 29700.00000 0 -19760034.706 11546551.109 11251011.361 10 0 60678 30600.00000 0 -20864059.675 12056124.947 8345974.786 10 0 60678 31500.00000 0 -21588812.517 12503061.062 5278675.889 10 0 60678 32400.00000 0 -21935197.503 12830752.813 2108734.891 10 0 60678 33300.00000 0 -21917125.259 12985381.192 -1102213.998 10 0 60678 34200.00000 0 -21560776.612 12918394.693 -4291726.167 10 0 60678 35100.00000 0 -20903366.096 12588779.064 -7397767.164 10 0 60678 36000.00000 0 -19991457.796 11965019.715 -10359925.715 10 0 60678 36900.00000 0 -18878905.301 11026672.633 -13120594.692 10 0 60678 37800.00000 0 -17624503.388 9765476.224 -15626096.367 10 0 60678 38700.00000 0 -16289451.214 8185956.030 -17827729.499 10 0 60678 39600.00000 0 -14934734.549 6305495.834 -19682717.563 10 0 60678 40500.00000 0 -13618537.742 4153871.214 -21155039.652 10 0 60678 41400.00000 0 -12393794.506 1772264.259 -22216128.117 10 0 60678 42300.00000 0 -11305980.443 -788200.001 -22845419.777 10 0 60678 43200.00000 0 -10391239.668 -3468335.017 -23030750.547 10 0 60678 44100.00000 0 -9674923.598 -6203114.139 -22768586.380 10 0 60678 45000.00000 0 -9170602.414 -8924140.122 -22064086.603 10 0 60678 45900.00000 0 -8879589.762 -11562260.583 -20930998.871 10 0 60678 46800.00000 0 -8790999.627 -14050221.341 -19391388.059 10 0 60678 47700.00000 0 -8882332.013 -16325247.953 -17475204.546 10 0 60678 48600.00000 0 -9120561.900 -18331448.872 -15219700.283 10 0 60678 49500.00000 0 -9463684.864 -20021940.974 -12668703.887 10 0 60678 50400.00000 0 -9862653.614 -21360609.758 -9871768.747 10 0 60678 51300.00000 0 -10263623.283 -22323431.687 -6883210.525 10 0 60678 52200.00000 0 -10610410.350 -22899304.383 -3761052.661 10 0 60678 53100.00000 0 -10847061.034 -23090350.861 -565900.376 10 0 60678 54000.00000 0 -10920420.419 -22911686.023 2640234.961 10 0 60678 54900.00000 0 -10782593.506 -22390656.059 5795138.162 10 0 60678 55800.00000 0 -10393193.934 -21565583.455 8837595.806 10 0 60678 56700.00000 0 -9721285.062 -20484070.950 11708581.628 10 0 60678 57600.00000 0 -8746931.060 -19200936.132 14352398.772 10 0 60678 58500.00000 0 -7462291.997 -17775863.676 16717756.869 10 0 60678 59400.00000 0 -5872216.056 -16270873.846 18758763.348 10 0 60678 60300.00000 0 -3994302.963 -14747713.288 20435810.192 10 0 60678 61200.00000 0 -1858434.759 -13265277.232 21716339.383 10 0 60678 62100.00000 0 494207.837 -11877170.609 22575472.705 10 0 60678 63000.00000 0 3012603.957 -10629509.675 22996494.143 10 0 60678 63900.00000 0 5637766.731 -9559055.622 22971175.762 10 0 60678 64800.00000 0 8304956.622 -8691757.718 22499940.877 10 0 60678 65700.00000 0 10946143.354 -8041766.548 21591861.140 10 0 60678 66600.00000 0 13492615.347 -7610958.340 20264487.220 10 0 60678 67500.00000 0 15877629.242 -7388990.110 18543515.711 10 0 60678 68400.00000 0 18038990.103 -7353883.206 16462297.933 10 0 60678 69300.00000 0 19921455.360 -7473110.698 14061199.331 10 0 60678 70200.00000 0 21478862.539 -7705142.833 11386821.105 10 0 60678 71100.00000 0 22675892.000 -8001385.317 8491098.513 10 0 60678 72000.00000 0 23489390.870 -8308428.428 5430292.974 10 0 60678 72900.00000 0 23909202.581 -8570511.498 2263897.443 10 0 60678 73800.00000 0 23938467.122 -8732097.945 -946523.524 10 0 60678 74700.00000 0 23593379.393 -8740451.019 -4138535.923 10 0 60678 75600.00000 0 22902416.021 -8548100.215 -7250056.636 10 0 60678 76500.00000 0 21905063.500 -8115092.799 -10220567.400 10 0 60678 77400.00000 0 20650101.759 -7410933.945 -12992297.929 10 0 60678 78300.00000 0 19193516.030 -6416132.218 -15511354.427 10 0 60678 79200.00000 0 17596125.582 -5123283.972 -17728771.016 10 0 60678 80100.00000 0 15921029.697 -3537649.793 -19601463.232 10 0 60678 81000.00000 0 14230978.747 -1677197.726 -21093065.045 10 0 60678 81900.00000 0 12585780.997 427889.465 -22174633.313 10 0 60678 82800.00000 0 11039853.999 2736223.159 -22825206.351 10 0 60678 83700.00000 0 9640022.890 5196692.410 -23032206.337 10 0 60678 84600.00000 0 8423657.252 7750360.887 -22791678.300 10 0 60678 85500.00000 0 7417223.733 10332698.720 -22108361.603 99